This is the latest recevied weather packets stored in our database for station/object N4HAC. If no packets are shown the sender has not sent any weather packets the latest 10 day(s).
| Time | Temp. | Humidity | Pressure | Rain* | Wind** | Luminosity | Snow |
|---|---|---|---|---|---|---|---|
| 1777377381 | 9.44° C | 89% | 1015.4 hPa | 1.27 mm | - | 57 W/m² | - |
| 1777377077 | 9.44° C | 88% | 1015.3 hPa | 1.78 mm | - | 53 W/m² | - |
| 1777376774 | 9.44° C | 86% | 1015.6 hPa | 1.78 mm | - | 45 W/m² | - |
| 1777376473 | 9.44° C | 85% | 1015.4 hPa | 0.51 mm | - | 35 W/m² | - |
| 1777376168 | 9.44° C | 84% | 1015.7 hPa | 0 mm | - | 25 W/m² | - |
| 1777375863 | 10° C | 82% | 1015.7 hPa | 0 mm | - | 19 W/m² | - |
| 1777375563 | 10° C | 81% | 1015.5 hPa | 0 mm | - | 23 W/m² | - |
| 1777375259 | 10° C | 81% | 1015.8 hPa | 0 mm | - | 21 W/m² | - |
| 1777374955 | 10° C | 80% | 1015.9 hPa | 0 mm | - | 23 W/m² | - |
| 1777374651 | 9.44° C | 80% | 1016 hPa | 0 mm | - | 11 W/m² | - |
| 1777374347 | 9.44° C | 81% | 1015.7 hPa | 0 mm | - | 4 W/m² | - |
| 1777374044 | 9.44° C | 81% | 1015.5 hPa | 0 mm | - | 11 W/m² | - |
| 1777373740 | 9.44° C | 81% | 1014.9 hPa | 0 mm | - | 7 W/m² | - |
| 1777373438 | 9.44° C | 81% | 1014.8 hPa | 0 mm | - | 9 W/m² | - |
| 1777373133 | 9.44° C | 81% | 1014.6 hPa | 0 mm | - | 9 W/m² | - |
| 1777372828 | 9.44° C | 81% | 1014.4 hPa | 0 mm | - | 7 W/m² | - |
| 1777372523 | 9.44° C | 81% | 1014.8 hPa | 0 mm | - | 4 W/m² | - |
| 1777372222 | 9.44° C | 81% | 1014.7 hPa | 0 mm | - | 4 W/m² | - |
| 1777371922 | 9.44° C | 81% | 1014.7 hPa | 0 mm | - | 2 W/m² | - |
| 1777371618 | 9.44° C | 81% | 1014.8 hPa | 0 mm | - | 1 W/m² | - |
| 1777371315 | 9.44° C | 81% | 1014.8 hPa | 0 mm | - | 1 W/m² | - |
| 1777371012 | 9.44° C | 81% | 1014.7 hPa | 0 mm | - | 0 W/m² | - |
| 1777370707 | 9.44° C | 82% | 1014.9 hPa | 0 mm | - | 0 W/m² | - |
| 1777370403 | 9.44° C | 81% | 1014.7 hPa | 0 mm | - | 0 W/m² | - |
| 1777370099 | 9.44° C | 81% | 1014.7 hPa | 0 mm | - | 0 W/m² | - |
* Rain latest hour (hover to see other rain measurements)
** Current wind speed in m/s (hover to see current wind gust speed)